Location: �perlecques
(50.8057°N, 2.1521°E)
Time: 20:52:23
(UTC+00:00)

Tiros 1 - Pass Details

Date: 12 August 2021
Orbit: 630 x 663 km, 48.4° (Epoch: 28 September)

Event Time Altitude Azimuth Distance (km) Brightness Sun altitude
Rises 15:58:38 0° 259° (W) 2,993 11.8 29.9°
Reaches altitude 10° 16:01:00 10° 257° (WSW) 2,080 11.5 29.5°
Maximum altitude 16:05:46 66° 175° (S) 723 7.9 28.8°
Drops below altitude 10° 16:10:30 10° 94° (E) 2,070 9.3 28.0°
Sets 16:12:51 0° 92° (E) 2,977 10.0 27.7°
